[[{"header":{"parameterUnit":"m.s-1","parameterCategory":2,"la1":30.2992,"la2":30.254,"lo1":-89.0895,"lo2":-89.0443,"dy":0.0025,"dx":0.0025,"nx":19,"ny":19,"refTime":"2026-04-29T03:00:00:Z","depth":"0","parameterNumber":2,"parameterNumberName":"U-component_of_CURRENTS"},"data":[0,0,0,0.2272,0.2273,0.2287,0.2287,0.2294,0.2295,0,0,0,0,0,0,0,0,0,0,0,0.2272,0.2273,0.2272,0.2273,0.2287,0.2287,0.2294,0.2295,0,0,0,0,0,0,0,0,0,0,0,0.2272,0.2273,0.2273,0.2273,0.2287,0.2287,0.2294,0.2283,0,0,0,0,0,0,0,0,0,0,0.2269,0.2264,0.2272,0.2273,0.2273,0.2287,0.2286,0.2282,0.2284,0.2289,0,0.2307,0,0.2305,0.2296,0.2296,0,0,0,0.2259,0.2263,0.2281,0.2273,0.2273,0.2287,0.2277,0.2283,0.2285,0.2291,0.2307,0.2307,0.2305,0.2296,0.2296,0.2325,0.2325,0,0,0.2259,0.2257,0.228,0.2283,0.2297,0.2276,0.2277,0.2284,0.2286,0.2307,0.2307,0.2305,0.2296,0.2297,0.2325,0.2325,0,0,0,0.2265,0.2256,0.2273,0.2282,0.2288,0.2277,0.2278,0.2285,0.2296,0.2307,0.2305,0.2297,0.2297,0.2325,0.2325,0.2446,0,0,0,0.2264,0.2261,0.2274,0.227,0.2289,0.2285,0.2279,0.2295,0.2296,0.2305,0.2297,0.2297,0.2324,0.2325,0.2442,0.2536,0,0,0,0.2268,0.2261,0.2272,0.227,0.2283,0.2285,0.2295,0.2295,0.2295,0.2296,0.2297,0.2324,0.2325,0.2439,0.2528,0.2621,0,0,0,0.2251,0.2292,0.2272,0.2312,0.2283,0.2311,0.2294,0.2313,0.232,0.2297,0.2324,0.2325,0.2438,0.2524,0.2616,0.2578,0.2599,0,0,0.2297,0.2297,0.2321,0.2305,0.2348,0.2307,0.2345,0.2349,0.2322,0.2319,0.232,0.2443,0.2528,0.262,0.2597,0.2618,0,0,0,0.2332,0.2348,0.2358,0.2375,0.2383,0.2399,0.2374,0.2385,0.2407,0.2329,0.2416,0.2466,0.252,0.2484,0.2501,0.2454,0.2326,0.2326,0.2326,0.2364,0.2378,0.2416,0.2428,0.2447,0.2459,0.2508,0.2511,0.2449,0.2479,0.2543,0.267,0.2629,0.2642,0.2594,0.2495,0.2495,0.2495,0.2496,0.2417,0.2423,0.2456,0.25,0.2522,0.2547,0.2621,0.2629,0.2728,0.2627,0.2673,0.2586,0.2668,0.2609,0.2503,0.2502,0.2501,0.25,0.25,0.24,0.2407,0.245,0.2511,0.2574,0.261,0.2725,0.2805,0.2853,0.2937,0.2861,0.2857,0.2829,0.2932,0.2933,0.2933,0.2934,0.2935,0.2935,0.2351,0.2398,0.2428,0.2513,0.2539,0.2633,0.2792,0.2891,0.3007,0.302,0.3018,0.2858,0.2804,0.2813,0.2948,0.2946,0.2944,0.2943,0.2942,0.2299,0.2328,0.2364,0.2399,0.2483,0.2523,0.2717,0.291,0.3056,0.3117,0.3053,0.3059,0.3029,0.3011,0.3024,0.3206,0.3206,0.3206,0.3206,0.2238,0.2266,0.2281,0.2305,0.2363,0.2457,0.253,0.2744,0.2997,0.3077,0.3138,0.3,0.2992,0.2951,0.2935,0.2942,0.31,0.31,0.31,0.219,0.2209,0.2182,0.2227,0.2277,0.2344,0.236,0.248,0.2858,0.3092,0.3093,0.3098,0.2887,0.2877,0.2795,0.2777,0.2779,0,0]},{"header":{"parameterUnit":"m.s-1","parameterCategory":2,"la1":30.2992,"la2":30.254,"lo1":-89.0895,"lo2":-89.0443,"dy":0.0025,"dx":0.0025,"nx":19,"ny":19,"refTime":"2026-04-29T03:00:00:Z","depth":"0","parameterNumber":3,"parameterNumberName":"V-component_of_CURRENTS"},"data":[0,0,0,0.0297,0.0297,0.0299,0.0299,0.0223,0.0223,0,0,0,0,0,0,0,0,0,0,0,0.0299,0.0299,0.0297,0.0298,0.0299,0.0299,0.0224,0.0223,0,0,0,0,0,0,0,0,0,0,0,0.0299,0.0299,0.03,0.0298,0.0299,0.0299,0.0224,0.0239,0,0,0,0,0,0,0,0,0,0,0.0246,0.0257,0.0299,0.03,0.0298,0.0299,0.0299,0.024,0.0238,0.0205,0,0.0218,0,0.0221,0.0217,0.0217,0,0,0,0.0285,0.0259,0.0268,0.03,0.0298,0.0299,0.0295,0.024,0.0237,0.0201,0.0217,0.0215,0.022,0.0217,0.0216,0.0169,0.0169,0,0,0.0285,0.0285,0.027,0.0267,0.0314,0.0295,0.0295,0.0239,0.0235,0.0217,0.0214,0.0219,0.0216,0.0215,0.0169,0.0169,0,0,0,0.0293,0.0285,0.0296,0.0269,0.0277,0.0295,0.0295,0.0238,0.0244,0.0213,0.0218,0.0215,0.0214,0.0168,0.0169,0.0325,0,0,0,0.0293,0.0291,0.0296,0.0294,0.0279,0.0266,0.0295,0.0248,0.0242,0.0218,0.0215,0.0214,0.0168,0.0169,0.032,0.0464,0,0,0,0.0296,0.029,0.0298,0.0294,0.0301,0.0268,0.0271,0.0247,0.0245,0.0217,0.0213,0.0168,0.0169,0.0316,0.0453,0.055,0,0,0,0.0285,0.0338,0.0298,0.0352,0.0302,0.0325,0.0271,0.0277,0.0261,0.0215,0.0168,0.0169,0.0315,0.0447,0.0544,0.0579,0.0613,0,0,0.0356,0.0346,0.038,0.0346,0.0416,0.0323,0.0365,0.0322,0.0247,0.0179,0.0178,0.0322,0.0453,0.0549,0.0594,0.0628,0,0,0,0.0406,0.0433,0.0446,0.047,0.0458,0.0466,0.0386,0.0361,0.0326,0.0241,0.0283,0.0362,0.0418,0.0422,0.0448,0.0276,0.017,0.017,0.017,0.0496,0.0504,0.0577,0.0582,0.0583,0.0548,0.0565,0.0503,0.0386,0.0393,0.0457,0.0604,0.0606,0.0627,0.0447,0.0379,0.0379,0.038,0.038,0.0622,0.0671,0.0678,0.0757,0.0748,0.0761,0.0729,0.0683,0.0706,0.0569,0.0613,0.0547,0.0666,0.0463,0.0389,0.0388,0.0387,0.0386,0.0385,0.0682,0.0714,0.0765,0.0868,0.0948,0.0926,0.1048,0.0994,0.0899,0.0954,0.0905,0.0902,0.0755,0.094,0.0941,0.0942,0.0943,0.0943,0.0944,0.0727,0.0782,0.0881,0.0988,0.1069,0.1185,0.1247,0.1284,0.1241,0.1134,0.1131,0.0782,0.0776,0.079,0.096,0.0957,0.0955,0.0954,0.0953,0.0814,0.083,0.0976,0.1074,0.1281,0.1452,0.1502,0.1574,0.1568,0.1556,0.1105,0.1204,0.1173,0.1148,0.117,0.1429,0.1429,0.1429,0.1429,0.0859,0.088,0.1066,0.1232,0.1433,0.1577,0.1778,0.1794,0.153,0.134,0.1202,0.1026,0.1014,0.0961,0.094,0.0951,0.1149,0.1148,0.1147,0.093,0.0971,0.111,0.1269,0.1502,0.1716,0.1905,0.1914,0.1456,0.1114,0.0964,0.0977,0.0685,0.068,0.0559,0.0544,0.0547,0,0]}],[{"header":{"parameterUnit":"m.s-1","parameterCategory":2,"la1":30.2992,"la2":30.254,"lo1":-89.0895,"lo2":-89.0443,"dy":0.0025,"dx":0.0025,"nx":19,"ny":19,"refTime":"2026-04-29T03:00:00:Z","depth":"2","parameterNumber":2,"parameterNumberName":"U-component_of_CURRENTS"},"data":[0,0,0,0.2282,0.2283,0.2304,0.2304,0.2316,0.2317,0,0,0,0,0,0,0,0,0,0,0,0.2283,0.2284,0.2282,0.2283,0.2304,0.2304,0.2316,0.2317,0,0,0,0,0,0,0,0,0,0,0,0.2283,0.2284,0.2285,0.2283,0.2304,0.2304,0.2316,0.2301,0,0,0,0,0,0,0,0,0,0,0.2282,0.2273,0.2284,0.2285,0.2284,0.2304,0.2304,0.2301,0.2302,0.2307,0,0.2328,0,0.2325,0.2318,0.2318,0,0,0,0.2271,0.2271,0.2295,0.2285,0.2284,0.2304,0.2291,0.2302,0.2303,0.2309,0.2328,0.2328,0.2325,0.2319,0.2319,0.2348,0.2348,0,0,0.227,0.2265,0.2294,0.2297,0.2312,0.2291,0.2292,0.2303,0.2303,0.2328,0.2328,0.2325,0.2319,0.2319,0.2348,0.2348,0,0,0,0.2275,0.2264,0.2287,0.2296,0.2303,0.2291,0.2293,0.2302,0.2316,0.2328,0.2325,0.2319,0.2319,0.2347,0.2348,0.2455,0,0,0,0.2274,0.2268,0.2287,0.228,0.2303,0.23,0.2292,0.2315,0.2316,0.2325,0.2319,0.2319,0.2347,0.2348,0.2452,0.2533,0,0,0,0.2278,0.2267,0.2281,0.2281,0.2296,0.23,0.2313,0.2315,0.2315,0.2318,0.2319,0.2347,0.2347,0.2449,0.2526,0.2609,0,0,0,0.2255,0.2301,0.2281,0.2321,0.2296,0.2322,0.2313,0.233,0.2337,0.2319,0.2347,0.2348,0.2448,0.2522,0.2605,0.2489,0.2501,0,0,0.2305,0.2306,0.2329,0.2313,0.2351,0.2317,0.2351,0.2361,0.2339,0.234,0.2341,0.2453,0.2526,0.2608,0.2507,0.2518,0,0,0,0.2339,0.2355,0.2363,0.2376,0.2382,0.2395,0.2377,0.239,0.2416,0.2347,0.2429,0.2472,0.2521,0.2439,0.2448,0.2349,0.2349,0.2349,0.2349,0.2376,0.2383,0.2415,0.2421,0.2437,0.2447,0.2495,0.2503,0.2451,0.2481,0.254,0.2654,0.2565,0.2571,0.2498,0.2499,0.2499,0.25,0.25,0.2425,0.2422,0.2448,0.2486,0.2502,0.2526,0.2595,0.2607,0.2704,0.2614,0.2656,0.2532,0.2588,0.2508,0.2506,0.2505,0.2504,0.2504,0.2503,0.2405,0.2404,0.2446,0.2499,0.2555,0.2587,0.2696,0.277,0.2812,0.2891,0.2768,0.2763,0.2759,0.2885,0.2886,0.2887,0.2887,0.2888,0.2888,0.2348,0.2391,0.2427,0.2507,0.2534,0.2623,0.2759,0.2839,0.2902,0.2899,0.2897,0.2785,0.2772,0.278,0.2899,0.2897,0.2896,0.2895,0.2894,0.2289,0.2327,0.2367,0.2408,0.2493,0.2519,0.2683,0.2797,0.2919,0.2939,0.2902,0.2898,0.2863,0.285,0.2858,0.2993,0.2993,0.2993,0.2993,0.2231,0.2263,0.2286,0.2325,0.2387,0.2456,0.2423,0.2449,0.2632,0.2649,0.2663,0.2505,0.251,0.2445,0.2442,0.2438,0.2462,0.2461,0.246,0.2188,0.2203,0.2193,0.2254,0.2311,0.2336,0.2188,0.2026,0.2171,0.2433,0.2503,0.297,0.277,0.2765,0.2685,0.2673,0.2674,0,0]},{"header":{"parameterUnit":"m.s-1","parameterCategory":2,"la1":30.2992,"la2":30.254,"lo1":-89.0895,"lo2":-89.0443,"dy":0.0025,"dx":0.0025,"nx":19,"ny":19,"refTime":"2026-04-29T03:00:00:Z","depth":"2","parameterNumber":3,"parameterNumberName":"V-component_of_CURRENTS"},"data":[0,0,0,0.0181,0.0182,0.0195,0.0195,0.0129,0.0128,0,0,0,0,0,0,0,0,0,0,0,0.0184,0.0184,0.0181,0.0182,0.0195,0.0195,0.0129,0.0128,0,0,0,0,0,0,0,0,0,0,0,0.0183,0.0184,0.0185,0.0182,0.0195,0.0195,0.0129,0.0137,0,0,0,0,0,0,0,0,0,0,0.0133,0.0142,0.0184,0.0185,0.0182,0.0195,0.0195,0.0138,0.0136,0.0102,0,0.0121,0,0.0123,0.0123,0.0122,0,0,0,0.0171,0.0143,0.0158,0.0185,0.0182,0.0195,0.0186,0.0138,0.0136,0.01,0.012,0.0118,0.0122,0.0122,0.0122,0.0077,0.0078,0,0,0.017,0.0168,0.016,0.0157,0.0206,0.0186,0.0187,0.0137,0.0135,0.012,0.0117,0.0121,0.0121,0.0121,0.0077,0.0077,0,0,0,0.0175,0.0168,0.0185,0.016,0.0169,0.0186,0.0187,0.0137,0.0147,0.0116,0.012,0.0121,0.012,0.0077,0.0077,0.0209,0,0,0,0.0174,0.0172,0.0185,0.0181,0.0171,0.0161,0.0188,0.0151,0.0145,0.012,0.0121,0.0119,0.0077,0.0077,0.0205,0.0316,0,0,0,0.0179,0.0171,0.0182,0.0181,0.0193,0.0163,0.0169,0.015,0.0147,0.0122,0.0119,0.0077,0.0077,0.0202,0.0307,0.0354,0,0,0,0.0162,0.0209,0.0183,0.0231,0.0193,0.022,0.017,0.0178,0.0166,0.0121,0.0077,0.0077,0.0201,0.0302,0.0349,0.0286,0.0304,0,0,0.0218,0.0216,0.0246,0.0223,0.0289,0.0216,0.0253,0.0216,0.0151,0.0085,0.0084,0.0207,0.0307,0.0353,0.0302,0.0319,0,0,0,0.0261,0.0285,0.03,0.0327,0.0327,0.0334,0.0273,0.0249,0.0215,0.0147,0.0175,0.0234,0.0259,0.0209,0.0223,0.0079,0.0079,0.0079,0.0079,0.0336,0.0345,0.0407,0.0418,0.0429,0.0404,0.0413,0.0356,0.0267,0.027,0.0316,0.0415,0.036,0.037,0.0256,0.0257,0.0258,0.0258,0.0258,0.0435,0.047,0.0488,0.0556,0.0558,0.0577,0.0541,0.0502,0.0504,0.0407,0.0422,0.032,0.0393,0.0268,0.0266,0.0265,0.0264,0.0263,0.0262,0.0468,0.0491,0.0539,0.0642,0.0718,0.0715,0.0801,0.0749,0.0654,0.0689,0.0572,0.0567,0.0528,0.0666,0.0666,0.0667,0.0668,0.0668,0.0669,0.0488,0.0533,0.0629,0.0739,0.0831,0.0936,0.0961,0.0962,0.0856,0.0744,0.0741,0.0552,0.0539,0.0549,0.0679,0.0677,0.0676,0.0675,0.0674,0.0541,0.0558,0.0688,0.0795,0.1015,0.1132,0.1149,0.1092,0.1052,0.0988,0.0744,0.0739,0.0695,0.068,0.0692,0.0852,0.0852,0.0852,0.0852,0.057,0.0591,0.0743,0.091,0.1104,0.122,0.1246,0.1115,0.0949,0.0784,0.0787,0.0664,0.0658,0.0604,0.0591,0.0597,0.0733,0.0733,0.0732,0.0635,0.0652,0.0758,0.0906,0.1142,0.128,0.1251,0.1102,0.0828,0.0728,0.0772,0.0843,0.0663,0.0654,0.0563,0.0545,0.0551,0,0]}],[{"header":{"parameterUnit":"m.s-1","parameterCategory":2,"la1":30.2992,"la2":30.254,"lo1":-89.0895,"lo2":-89.0443,"dy":0.0025,"dx":0.0025,"nx":19,"ny":19,"refTime":"2026-04-29T03:00:00:Z","depth":"4","parameterNumber":2,"parameterNumberName":"U-component_of_CURRENTS"},"data":[0,0,0,0.0955,0.0956,0.1098,0.11,0.1445,0.1448,0,0,0,0,0,0,0,0,0,0,0,0.0945,0.0945,0.0955,0.0956,0.1098,0.11,0.1445,0.1448,0,0,0,0,0,0,0,0,0,0,0,0.0945,0.0945,0.0946,0.0956,0.1098,0.11,0.1444,0.1311,0,0,0,0,0,0,0,0,0,0,0.1159,0.1115,0.0945,0.0946,0.0956,0.1098,0.11,0.1304,0.1319,0.1407,0,0.1414,0,0.1398,0.1469,0.147,0,0,0,0.1019,0.1102,0.111,0.0946,0.0957,0.1097,0.1052,0.1312,0.133,0.1429,0.1418,0.1429,0.1403,0.1471,0.1472,0.1716,0.1716,0,0,0.1011,0.1012,0.1096,0.112,0.0978,0.1047,0.1055,0.1321,0.1356,0.1419,0.1436,0.1409,0.1473,0.1475,0.1715,0.1716,0,0,0,0.0946,0.1007,0.1007,0.1108,0.1098,0.1049,0.106,0.1346,0.1336,0.1439,0.1413,0.1475,0.1479,0.1715,0.1716,0.1764,0,0,0,0.0944,0.0962,0.1003,0.1011,0.1091,0.1201,0.1078,0.1319,0.1346,0.1411,0.1475,0.1482,0.1715,0.1715,0.1762,0.1794,0,0,0,0.0941,0.0963,0.0966,0.101,0.1033,0.1194,0.1205,0.1325,0.1329,0.147,0.1483,0.1714,0.1715,0.176,0.1791,0.182,0,0,0,0.0956,0.0934,0.0968,0.0932,0.1031,0.1152,0.1203,0.1353,0.1479,0.1476,0.1715,0.1715,0.176,0.1789,0.1818,0.1557,0,0,0,0.0919,0.0932,0.0898,0.0926,0.1043,0.1138,0.1286,0.147,0.1512,0.165,0.1655,0.1763,0.1791,0.182,0.1603,0,0,0,0,0.0875,0.089,0.0931,0.0987,0.1088,0.1277,0.1432,0.1499,0.1645,0.1571,0.1764,0.1781,0.1797,0.1638,0.1719,0.1719,0.1719,0.1719,0.1719,0.0885,0.0898,0.0951,0.1047,0.1174,0.1402,0.153,0.1645,0.1705,0.1757,0.1821,0.1879,0.1712,0.1815,0.1815,0.1816,0.1816,0.1816,0.1816,0.0854,0.0856,0.0982,0.1045,0.1259,0.1446,0.1663,0.1732,0.1873,0.1869,0.1882,0.1701,0.1821,0.182,0.1819,0.1819,0.1818,0.1818,0.1818,0.0848,0.0862,0.0889,0.1014,0.125,0.1493,0.1657,0.1822,0.1919,0.1964,0.1795,0.1917,0.1912,0.1979,0.198,0.198,0.198,0.1981,0.1981,0.0809,0.0848,0.0879,0.1022,0.1138,0.1349,0.1679,0.1767,0.1915,0.1833,0.1994,0.1934,0.1929,0.1922,0.1985,0.1984,0.1984,0.1983,0.1983,0.0751,0.0785,0.0806,0.086,0.1045,0.1166,0.1463,0.1643,0.171,0.168,0.1746,0.1756,0.1716,0.1717,0.17,0.1701,0.1698,0.1695,0,0.0715,0.0734,0.0753,0.0789,0.0856,0.1046,0.1117,0.128,0.1465,0.1426,0.1646,0.1714,0.1722,0.1668,0.1664,0.1638,0,0,0,0.0666,0.0687,0.0688,0.0739,0.0793,0.0925,0.1137,0.1186,0.1419,0.1447,0.1617,0.1637,0.1769,0.1998,0.1963,0.1956,0.1943,0,0]},{"header":{"parameterUnit":"m.s-1","parameterCategory":2,"la1":30.2992,"la2":30.254,"lo1":-89.0895,"lo2":-89.0443,"dy":0.0025,"dx":0.0025,"nx":19,"ny":19,"refTime":"2026-04-29T03:00:00:Z","depth":"4","parameterNumber":3,"parameterNumberName":"V-component_of_CURRENTS"},"data":[0,0,0,-0.0122,-0.0122,-0.0117,-0.0117,-0.0113,-0.0113,0,0,0,0,0,0,0,0,0,0,0,-0.013,-0.013,-0.0122,-0.0122,-0.0117,-0.0117,-0.0113,-0.0113,0,0,0,0,0,0,0,0,0,0,0,-0.013,-0.013,-0.013,-0.0122,-0.0117,-0.0117,-0.0113,-0.0116,0,0,0,0,0,0,0,0,0,0,-0.0121,-0.0126,-0.013,-0.013,-0.0122,-0.0117,-0.0117,-0.0116,-0.0116,-0.0117,0,-0.0122,0,-0.0116,-0.0113,-0.0113,0,0,0,-0.0121,-0.0126,-0.0126,-0.013,-0.0122,-0.0117,-0.0119,-0.0116,-0.0116,-0.0117,-0.0122,-0.0122,-0.0116,-0.0113,-0.0113,-0.0075,-0.0074,0,0,-0.0121,-0.0126,-0.0126,-0.0126,-0.0128,-0.0119,-0.0119,-0.0116,-0.0118,-0.0122,-0.0121,-0.0116,-0.0113,-0.0113,-0.0075,-0.0075,0,0,0,-0.0123,-0.0126,-0.0126,-0.0127,-0.0124,-0.0119,-0.0118,-0.0118,-0.0119,-0.0121,-0.0116,-0.0113,-0.0113,-0.0075,-0.0075,-0.0072,0,0,0,-0.0123,-0.0127,-0.0126,-0.0128,-0.0124,-0.012,-0.0121,-0.0119,-0.0118,-0.0116,-0.0113,-0.0113,-0.0076,-0.0075,-0.0074,-0.0069,0,0,0,-0.0129,-0.0127,-0.0129,-0.0129,-0.0126,-0.012,-0.012,-0.0119,-0.0115,-0.0113,-0.0113,-0.0076,-0.0075,-0.0074,-0.0071,-0.0092,0,0,0,-0.0129,-0.0127,-0.013,-0.0109,-0.0127,-0.0085,-0.012,-0.0093,-0.0086,-0.0113,-0.0076,-0.0075,-0.0075,-0.0072,-0.0092,-0.0011,0,0,0,-0.0124,-0.0127,-0.0108,-0.011,-0.0099,-0.0085,-0.0052,-0.0065,-0.0073,-0.0078,-0.0077,-0.0073,-0.0071,-0.0092,0.0048,0,0,0,0,-0.0102,-0.0111,-0.01,-0.0093,-0.0058,-0.0045,-0.0032,-0.0044,-0.0055,-0.0066,-0.0053,-0.0051,-0.0065,-0.0018,-0.007,-0.007,-0.007,-0.007,-0.007,-0.012,-0.0102,-0.0093,-0.0074,-0.0045,-0.0014,-0.0009,-0.0022,-0.0019,-0.0025,-0.0035,-0.0027,0.0027,-0.002,-0.002,-0.002,-0.002,-0.002,-0.002,-0.0115,-0.01,-0.0099,-0.0092,-0.0066,-0.0035,-0.0005,-0.0009,-0.0021,-0.0017,-0.0031,0.0002,-0.0019,-0.0019,-0.0019,-0.0019,-0.0019,-0.0019,-0.0019,-0.0113,-0.0108,-0.0108,-0.0088,-0.0089,-0.0045,-0.0004,0.0004,-0.0022,-0.0025,0.002,-0.0029,-0.0048,-0.0029,-0.0029,-0.0029,-0.0029,-0.0029,-0.0029,-0.0094,-0.0097,-0.0075,-0.0086,-0.0069,-0.0034,0.001,0.0027,0.0014,0.0039,-0.0017,-0.0031,-0.0031,-0.0048,-0.003,-0.003,-0.003,-0.003,-0.003,-0.0073,-0.0062,-0.0017,0.0001,0.004,0.0053,0.0071,0.0104,0.0105,0.0087,0.0059,0.0055,0.0055,0.0053,0.0038,0.0082,0.0083,0.0084,0,-0.0046,-0.0043,0.0051,0.012,0.0172,0.014,0.0205,0.0196,0.0141,0.0151,0.0075,0.0043,0.004,0.004,0.004,0.0024,0,0,0,-0.0018,0.0011,0.0086,0.0163,0.0233,0.0249,0.0229,0.0249,0.0138,0.0168,0.0111,0.0104,0.0044,-0.0033,-0.0043,-0.0043,-0.0072,0,0]}]]